Regional Weather Roundup
Issued by NWS

Home | Current Version | Previous Version | Text Only | Print | Product List | Glossary Off
Versions: 1 2 3 4 5 6 7 8 9 10 11 12 13 14 15 16 17 18 19 20 21 22 23 24 25 26 27 28 29 30 31 32 33 34 35 36 37 38 39 40 41 42 43 44 45 46 47 48 49 50

000
ASUS45 KCYS 311910
RWRWY

WYOMING REGIONAL WEATHER ROUNDUP
NATIONAL WEATHER SERVICE CHEYENNE WY
100 PM MDT FRI JUL 31 2015

NOTE:  "FAIR" INDICATES FEW OR NO CLOUDS BELOW 12,000 FEET
WITH NO SIGNIFICANT WEATHER AND/OR OBSTRUCTIONS TO VISIBILITY.

WYZ001-312000-
YELLOWSTONE NATIONAL PARK

CITY           SKY/WX    TMP DP  RH WIND       PRES   REMARKS
LK YELLOWSTONE   N/A     74  39  28 CALM      30.51F
W YELLOWSTONE  NOT AVBL

$$
WYZ002>013-054>058-071-098>099-312000-
NORTHERN WYOMING

CITY           SKY/WX    TMP DP  RH WIND       PRES   REMARKS
JACKSON        SUNNY     75  36  23 CALM      30.40F
CODY           FAIR      86  36  16 E6        30.26F
GREYBULL       FAIR      88  33  14 CALM      30.19F
WORLAND        FAIR      89  37  16 VRB5      30.20F
SHERIDAN       FAIR      90  39  16 VRB5      30.20F
BUFFALO        FAIR      87  37  17 E9        30.27F
GILLETTE       FAIR      88  40  18 SE7       30.22F
HULETT         FAIR      84  46  26 E7        30.25F
NEWCASTLE      FAIR      86  43  22 SE7       30.24F

$$
WYZ014>020-022>026-101>103-312000-
CENTRAL WYOMING

CITY           SKY/WX    TMP DP  RH WIND       PRES   REMARKS
BIG PINEY      FAIR      78  24  13 W6        30.42F
PINEDALE       FAIR      79  18  10 E9        30.42F
DUBOIS         FAIR      77  23  13 CALM      30.41F
LANDER         FAIR      83  32  16 VRB3      30.29F
RIVERTON       FAIR      82  37  20 NE8       30.30F
CASPER         FAIR      88  34  14 MISG      30.28F
DOUGLAS        FAIR      90  33  13 VRB3      30.26F

$$
WYZ021-027>030-104>119-312000-
SOUTHERN WYOMING

CITY           SKY/WX    TMP DP  RH WIND       PRES   REMARKS
EVANSTON       FAIR      81  13   7 N10G20    30.43F
KEMMERER       FAIR      81  16   9 SW9       30.44F
FORT BRIDGER   CLEAR     82  21  10 CALM      30.44F
ROCK SPRINGS   FAIR      80  27  14 VRB5      30.39F
DIXON          FAIR      87  25  10 S5        30.38F
RAWLINS        FAIR      83  19   9 S6        30.38F
SARATOGA       FAIR      82  21  10 NW3       30.41S
LARAMIE        FAIR      79  34  19 NW5       30.40F
CHEYENNE       FAIR      84  49  29 S18G25    30.35F
TORRINGTON     FAIR      88  59  37 SE10      30.22F
PINE BLUFFS    FAIR      88  43  20 S10G18    30.30F

$$



USA.gov is the U.S. government's official web portal to all federal, state and local government web resources and services.